Regional Weather Roundup
Issued by NWS

Home | Current Version | Previous Version | Graphics & Text | Print | Product List | Glossary On
Versions: 1 2 3 4 5 6 7 8 9 10 11 12 13 14 15 16 17 18 19 20 21 22 23 24 25 26 27 28 29 30 31 32 33 34 35 36 37 38 39 40 41 42 43 44 45 46 47 48 49 50
000
ASUS43 KIND 010209
RWRIN

WEATHER ROUNDUP FOR INDIANA
NATIONAL WEATHER SERVICE INDIANAPOLIS IN
900 PM EST SAT FEB 28 2015

NOTE: "FAIR" INDICATES FEW OR NO CLOUDS BELOW 12,000 FEET WITH NO
SIGNIFICANT WEATHER AND/OR OBSTRUCTIONS TO VISIBILITY.

* - STATION DOES NOT REPORT WEATHER SUCH AS PRECIPITATION OR FOG.

+ - STATION NOT QUALITY CONTROLLED BY THE NATIONAL WEATHER SERVICE.
    USE DATA WITH CAUTION...ESPECIALLY DEWPOINT AND RELATIVE
    HUMIDITY OBSERVATIONS.

INZ001>003-010>013-019-020-010300-
NORTHWEST INDIANA

CITY           SKY/WX    TMP DP  RH WIND       PRES   REMARKS
GARY /AIRPORT/ LGT SNOW  19  12  73 SE5       30.55F WCI  13
KNOX *+          N/A     19   1  45 SE10      30.53F WCI   8
LA PORTE +     LGT SNOW  21  12  69 SE5       30.53F WCI  14
MICHIGAN CITY+ LGT SNOW  19   7  58 SE3       30.54F
MONTICELLO +   LGT SNOW  19  17  90 SE5       30.53F WCI  12
RENSSELAER +   LGT SNOW  21  21 100 SE6       30.54R VSB 1   WCI  14
VALPARAISO     LGT SNOW  19  10  68 SE8       30.53F WCI   9

$$

LMZ046-743>745-010300-
SOUTHERN LAKE MICHIGAN

STATION/POSITION TIME  TEMP WIND        PRES
                       AIR  DIR/SP/G
                 (UTC) (F)  (DEG/KT/KT) (MB)
MICHIGAN CITY    0200   20  130/  7/ 11   N/A

$$

INZ004-005-014>016-021>024-010300-
NORTH CENTRAL INDIANA

CITY           SKY/WX    TMP DP  RH WIND       PRES   REMARKS
GOSHEN         CLOUDY    18   6  59 SE9       30.54F WCI   7
LOGANSPORT +   LGT SNOW  19  18  93 E9        30.55S WCI   9
PERU/GRISSOM   LGT SNOW  18  15  86 E8        30.53S FOG     WCI   8
ROCHESTER +    LGT SNOW  21  16  79 SE9       30.54F WCI  11
SOUTH BEND     LGT SNOW  20   8  60 S13       30.55S WCI   7
WARSAW +       LGT SNOW  19   9  63 SE7       30.54F WCI  10

$$

INZ006>009-017-018-025>027-010300-
NORTHEAST INDIANA

CITY           SKY/WX    TMP DP  RH WIND       PRES   REMARKS
ANGOLA *+      CLOUDY    16   3  57 SE5       30.54S WCI   9
AUBURN +       CLOUDY    19   3  49 CALM      30.57S
FORT WAYNE     CLOUDY    18   6  59 E7        30.56S WCI   9
HUNTINGTON +   LGT SNOW  19   7  59 E6        30.54F WCI  11

$$

INZ028-029-035-036-043>045-051>053-010300-
WEST CENTRAL INDIANA

CITY           SKY/WX    TMP DP  RH WIND       PRES   REMARKS
CRAWFORDSVL +  LGT SNOW  19  14  82 E5        30.52S WCI  12
GREENCASTLE +  LGT SNOW  21  18  86 E6        30.51S WCI  14
LAFAYETTE      LGT SNOW  20  18  92 SE6       30.54S VSB 3/4 WCI  12
TERRE HAUTE    LGT SNOW  24  22  91 E3        30.53R VSB 3/4

$$

INZ030>032-037>040-046>048-054>057-064-065-010300-
CENTRAL INDIANA

CITY           SKY/WX    TMP DP  RH WIND       PRES   REMARKS
CP ATTERBURY + CLOUDY    28  14  54 CALM      30.53R
FRANKFORT +    LGT SNOW  20  18  92 E7        30.53S WCI  11
GREENWOOD *+   CLOUDY    21  16  79 E5        30.52R WCI  15
INDIANAPOLIS   SNOW      21  18  88 E6        30.51R VSB 1/2 WCI  13
-EAGLE CREEK   LGT SNOW  20  18  92 E6        30.52R VSB 3/4 WCI  12
KOKOMO *+      CLOUDY    19  14  79 E10       30.54S WCI   8
MARION +       LGT SNOW  19  12  76 E6        30.54S WCI  10
MT COMFORT *+  CLOUDY    21  14  73 E6        30.53R WCI  14
SHELBYVILLE    LGT SNOW  25  16  68 E7        30.52R WCI  17
ZIONSVILLE +   LGT SNOW  21  16  83 E3        30.52R

$$

INZ033-034-041-042-049-050-058-059-010300-
EAST CENTRAL INDIANA

CITY           SKY/WX    TMP DP  RH WIND       PRES   REMARKS
MUNCIE         LGT SNOW  19  14  81 E7        30.53R VSB 1   WCI  10

$$

INZ060-061-067>069-081>083-085>088-010300-
SOUTHWEST INDIANA

CITY           SKY/WX    TMP DP  RH WIND       PRES   REMARKS
EVANSVILLE     CLOUDY    34  19  54 N5        30.50R WCI  30
HUNTINGBURG *+ CLOUDY    32  18  55 NE7       30.49S WCI  26
WASHINGTON +   CLOUDY    29  15  56 N12       30.52R WCI  19

$$

INZ062-063-066-070>080-084-089>092-010300-
SOUTH CENTRAL AND SOUTHEAST INDIANA

CITY           SKY/WX    TMP DP  RH WIND       PRES   REMARKS
BLOOMINGTON    LGT SNOW  25  18  74 SE8       30.51R WCI  16
NORTH VERNON + CLOUDY    30   9  40 CALM      30.51R
SEYMOUR +      CLOUDY    30  18  59 NE3       30.52R

$$



USA.gov is the U.S. government's official web portal to all federal, state and local government web resources and services.